Погода в Вердене

Канада     45°27′17″N   73°33′30″W
темп.,
°C
ветер,
м/с
пор.,
м/с
влажн.,
%
обл.,
%
осадки,
мм/ч
давл.,
гПа
погр.,
м
18 мая, вт
вт1823:00+16юз41372100 0.0 1022451
02:00+14зюз4882100 0.8 1022224
05:00+13зюз3788100 0.3 1023254
08:00+14з35815 0.4 1025299
11:00+19зсз236082 0.1 10241328
14:00+21сз3745100 0.2 10232157
17:00+22ссз4742100 0.0 10221929
20:00+18зсз3654100 0.0 1023151
19 мая, ср
ср1923:00+15св225649 0.0 102435
02:00+14ю11507 0.0 102512
05:00+13юв115020 0.0 102512
08:00+15ююв125191 0.0 1026275
11:00+17зюз127298 0.0 1027473
14:00+22зюз12545 0.0 1025692
17:00+24ююз23566 0.1 1024770
20:00+21ююз227891 1.4 102526
20 мая, чт
чт2023:00+19ююз2691100 1.4 1025144
02:00+17юз2692100 1.4 1026137
05:00+16ююз2691100 0.0 1026145
08:00+17зюз3781100 0.0 1028248
11:00+21юз3561100 0.0 1028468
14:00+20з3769100 0.0 1027449
17:00+18зсз2589100 0.3 1027301
20:00+16ю2696100 1.2 1027234
21 мая, пт
пт2123:00+16ю4996100 2.3 1027388
02:00+16ю4997100 4.6 1026408
05:00+16ююз2598100 0.1 1026223
08:00+16ююз2398100 0.1 1027196
11:00+18юз2492100 0.0 1027432
14:00+18зюз3694100 0.4 1027329
17:00+17юз2698100 1.3 1026281
20:00+17ююв3798100 1.7 1025266
22 мая, сб
сб2223:00+17ю3799100 1.1 1024297
02:00+17юз2699100 1.8 1022258
05:00+17юз3899100 7.4 1020437
08:00+17зюз3699100 12.8 1020290
11:00+17зюз2598100 0.6 1019234
14:00+18юз2397100 0.6 1018243
17:00+17юв1299100 0.3 1016107
20:00+17ююв3698100 0.3 1016276